Theta_e
302 303 304 304 305 305 305 305 306 306 306 307 307 307 308 308 308 308 309 308 309 308 308 310 311 311 313 315 318 321 327 327
302 302 303 304 304 304 303 303 304 303 303 302 302 302 304 305 306 307 307 307 307 306 306 307 309 309 310 313 314 316 318 324
301 302 303 303 303 303 302 302 302 302 301 300 301 301 302 303 305 306 305 305 305 304 304 304 306 307 308 310 311 311 315 320
300 301 301 302 301 301 300 301 301 301 300 300 300 300 300 300 300 299 301 301 300 300 300 300 301 303 304 307 309 310 310 316
300 300 300 300 300 301 301 301 300 300 300 298 296 295 293 295 296 296 296 297 296 297 297 297 298 298 299 301 305 308 310 309
299 299 299 299 300 300 301 300 299 299 298 297 295 293 293 293 292 291 291 293 293 294 295 296 296 297 298 299 299 302 304 305
298 299 299 299 300 300 300 299 298 298 297 296 294 291 290 289 289 288 289 290 292 292 293 293 294 295 296 298 299 299 300 303
298 298 298 297 297 298 298 297 296 296 295 295 293 291 289 287 287 287 287 288 289 290 291 291 292 294 295 297 297 298 300 300
298 297 297 295 295 295 295 294 294 294 294 293 292 290 288 287 287 287 287 287 288 289 290 290 291 292 293 295 296 298 299 300
298 296 296 294 293 293 293 291 291 292 292 292 291 289 287 286 287 287 287 288 288 288 289 289 290 291 291 292 295 296 299 300
296 295 293 293 291 292 291 289 289 291 292 291 289 288 286 286 287 286 286 287 288 287 288 287 287 288 289 291 291 298 297 298
295 293 292 289 289 289 287 286 287 288 289 289 287 285 285 285 285 286 285 286 287 287 285 285 285 286 286 287 288 289 290 290
294 286 285 285 284 284 284 285 285 285 285 286 285 284 284 284 284 285 285 284 286 286 286 284 284 284 284 284 284 286 286 286
292 288 284 283 285 283 283 283 282 283 283 283 283 283 283 283 283 285 285 285 285 285 284 283 283 283 284 284 284 283 283 283
292 290 287 286 284 283 282 282 282 282 281 282 281 281 282 283 284 284 284 284 284 284 285 284 282 282 283 284 283 283 283 283
291 290 288 287 286 285 285 283 281 281 280 280 280 281 282 282 283 283 284 283 282 283 283 283 283 282 282 282 282 281 281 281
290 289 287 286 285 285 284 284 282 282 279 278 280 280 280 281 282 283 282 282 282 282 281 280 281 282 281 281 281 280 279 279
290 288 286 286 286 285 284 283 283 283 280 279 279 279 279 280 281 281 281 281 281 280 280 280 279 280 281 281 281 281 278 277
289 288 287 286 287 286 285 284 283 282 282 281 279 278 279 280 280 280 281 282 280 280 279 279 279 279 280 281 281 281 279 277
Wind_Speed
5 7 8 8 9 10 11 11 13 14 10 10 10 10 9 9 10 9 12 10 12 12 11 12 12 10 10 10 11 11 11 10
4 4 4 5 7 8 11 11 12 11 9 10 10 11 11 11 10 13 13 12 13 13 11 12 12 11 12 13 12 13 12 11
4 3 4 6 8 9 10 11 12 11 10 11 10 11 12 12 11 11 14 14 14 14 14 13 15 12 14 13 13 11 12 11
3 1 4 5 7 8 9 10 11 10 12 10 10 11 10 10 11 12 13 16 17 16 16 14 14 13 12 13 13 15 12 11
2 1 3 5 7 7 8 9 10 10 12 12 15 12 13 12 12 12 14 17 16 15 14 13 12 10 13 12 14 13 13 13
1 1 3 3 5 7 7 9 9 11 13 13 11 13 11 12 12 15 14 13 15 14 12 12 12 9 10 12 13 14 11 12
3 2 1 5 6 7 7 9 10 12 13 14 14 14 15 13 13 11 10 10 10 13 14 14 14 12 12 11 11 13 11 12
4 2 2 4 6 7 8 9 10 12 13 13 14 14 14 14 14 11 14 10 10 12 14 13 12 13 13 12 12 12 12 10
6 2 1 4 4 7 8 10 10 11 12 12 12 13 9 10 12 11 10 10 10 15 13 13 15 14 13 13 10 10 12 11
6 4 1 3 5 6 8 10 10 10 10 10 11 11 12 12 13 12 10 12 11 14 15 13 11 11 11 11 8 13 13 12
7 5 2 3 5 5 8 9 9 9 10 10 9 11 12 12 11 13 14 13 14 14 15 14 13 12 12 10 10 8 10 7
6 2 4 4 6 7 7 7 8 9 10 9 10 10 11 11 11 12 14 15 15 15 15 15 15 15 14 12 12 15 14 13
8 5 1 2 2 3 4 7 8 8 9 10 9 9 10 11 12 13 13 14 14 15 15 15 15 15 15 15 15 14 15 15
8 7 6 3 2 3 4 5 6 7 8 8 8 9 10 10 11 11 13 12 13 14 15 16 16 16 14 15 14 14 15 15
8 8 7 7 4 3 3 4 5 6 6 7 8 9 10 9 10 11 13 15 16 16 15 14 15 16 16 14 15 14 13 14
10 9 8 7 6 5 5 4 4 5 6 7 8 9 9 10 11 13 13 14 15 17 17 18 17 16 14 15 15 16 16 15
12 10 9 7 7 6 5 5 3 5 6 7 8 9 9 10 11 11 12 14 14 14 15 16 16 12 24 25 20 16 18 18
12 11 9 7 7 6 5 6 5 4 6 6 8 8 8 9 10 11 11 12 13 14 14 14 16 15 22 21 22 14 15 17
13 11 9 8 8 7 6 6 6 5 5 6 7 7 8 8 9 9 10 11 13 13 14 15 15 16 25 20 19 14 14 17
Wind_Direction
55 34 28 16 21 9 5 4 359 347 340 337 330 326 323 319 311 313 319 313 311 313 306 303 301 293 285 280 284 282 280 272
96 56 51 8 26 11 6 0 358 348 349 341 332 327 322 315 313 313 309 316 310 312 306 303 298 293 292 293 286 279 273 263
111 59 41 24 18 10 2 360 355 353 351 333 333 324 316 310 306 317 322 313 321 313 311 303 298 292 287 284 279 274 268 268
146 58 39 19 20 8 359 358 353 360 350 335 332 320 315 317 330 318 323 324 318 309 307 304 302 302 293 284 275 270 269 264
158 346 23 18 17 7 358 0 359 5 354 345 342 326 325 330 317 321 327 321 316 319 314 304 295 289 284 291 293 292 271 267
158 24 10 32 19 11 7 358 5 6 357 354 344 341 330 329 329 327 318 318 317 314 316 322 314 302 282 277 282 286 291 297
176 156 341 31 21 10 2 357 3 8 359 356 354 344 338 333 331 327 327 321 321 323 322 316 302 288 282 280 269 268 270 274
192 193 355 24 8 7 359 360 3 8 358 360 358 352 345 336 335 331 328 327 327 326 326 314 306 298 291 279 270 269 261 252
204 176 1 26 14 14 1 359 1 4 356 1 4 359 352 341 339 336 332 331 329 330 328 324 323 312 300 288 274 259 256 254
185 169 137 40 17 22 11 2 6 1 358 3 6 5 358 350 346 343 340 341 342 339 339 341 336 331 324 308 285 264 253 251
175 163 104 49 31 24 26 10 5 356 3 8 9 7 1 352 353 351 353 351 354 350 357 358 354 352 346 349 337 321 231 246
172 90 120 52 26 18 27 6 10 6 6 11 12 9 360 358 359 3 359 354 358 6 8 6 9 9 5 6 11 21 39 35
169 165 125 64 64 35 32 15 16 7 8 10 11 12 10 3 3 8 6 358 2 8 15 16 14 13 20 19 23 25 34 33
169 175 176 171 161 71 39 30 17 12 15 7 10 14 14 10 8 6 14 7 17 19 21 21 19 18 17 26 28 34 36 34
189 196 188 165 151 116 76 44 23 17 17 15 18 17 16 12 16 17 25 20 16 25 28 30 28 22 21 25 28 28 35 37
195 196 182 163 154 150 130 95 46 25 31 24 24 22 17 24 25 30 25 34 26 23 30 28 29 32 27 26 32 32 31 32
192 190 184 161 154 148 125 103 87 68 47 36 31 30 23 29 28 36 33 29 34 26 31 33 26 25 33 37 37 38 34 31
186 187 174 160 148 149 133 128 104 86 80 52 46 34 26 30 34 33 37 36 32 33 29 36 35 27 31 40 40 40 38 35
179 173 161 162 154 136 133 136 126 95 67 74 63 49 35 31 36 41 39 40 38 35 30 32 35 31 27 31 42 46 43 40